QPF
0.00 0.00 0.00 0.00 0.00 0.00 0.00 0.00 0.00 0.00 0.00 0.00 0.00 0.00 0.00 0.00 0.00 0.00 0.01 0.01 0.01 0.01 0.02 0.03 0.05 0.05 0.04 0.03 0.03 0.03 0.02 0.02 0.03 0.03 0.04 0.04 0.04 0.04 0.03 0.02 0.02 0.03 0.03 0.03 0.04 0.03 0.03 0.03 0.04
0.00 0.01 0.01 0.01 0.00 0.00 0.00 0.00 0.00 0.00 0.00 0.00 0.00 0.00 0.00 0.00 0.00 0.01 0.02 0.01 0.01 0.02 0.02 0.02 0.04 0.05 0.04 0.03 0.04 0.04 0.03 0.02 0.03 0.03 0.03 0.05 0.05 0.04 0.04 0.02 0.03 0.02 0.03 0.04 0.04 0.03 0.02 0.02 0.03
0.01 0.01 0.01 0.01 0.00 0.00 0.00 0.00 0.00 0.00 0.00 0.00 0.00 0.00 0.00 0.00 0.00 0.01 0.01 0.01 0.01 0.01 0.02 0.02 0.04 0.04 0.04 0.04 0.04 0.05 0.05 0.04 0.03 0.04 0.04 0.04 0.04 0.04 0.05 0.03 0.03 0.02 0.03 0.04 0.04 0.03 0.02 0.01 0.02
0.02 0.02 0.02 0.01 0.00 0.00 0.00 0.00 0.00 0.00 0.00 0.00 0.00 0.00 0.00 0.00 0.01 0.01 0.01 0.01 0.01 0.01 0.02 0.02 0.03 0.05 0.06 0.06 0.05 0.05 0.05 0.05 0.04 0.03 0.03 0.03 0.04 0.04 0.04 0.03 0.03 0.03 0.03 0.04 0.03 0.02 0.02 0.02 0.02
0.03 0.04 0.02 0.01 0.00 0.00 0.00 0.00 0.00 0.00 0.00 0.00 0.00 0.00 0.00 0.01 0.01 0.01 0.01 0.01 0.01 0.01 0.02 0.02 0.03 0.05 0.07 0.09 0.08 0.05 0.05 0.05 0.05 0.04 0.03 0.03 0.04 0.04 0.04 0.03 0.03 0.04 0.03 0.03 0.03 0.02 0.02 0.02 0.02
0.04 0.04 0.02 0.00 0.00 0.00 0.00 0.00 0.00 0.00 0.00 0.00 0.00 0.00 0.00 0.01 0.01 0.01 0.01 0.01 0.01 0.01 0.02 0.02 0.03 0.03 0.05 0.08 0.11 0.08 0.05 0.05 0.05 0.04 0.03 0.03 0.04 0.04 0.03 0.03 0.03 0.04 0.03 0.03 0.03 0.03 0.03 0.03 0.03
0.03 0.03 0.01 0.00 0.00 0.00 0.00 0.00 0.00 0.00 0.00 0.00 0.00 0.00 0.00 0.01 0.00 0.01 0.01 0.01 0.02 0.02 0.02 0.03 0.03 0.03 0.03 0.04 0.08 0.12 0.07 0.05 0.05 0.05 0.04 0.04 0.05 0.04 0.04 0.03 0.03 0.04 0.03 0.03 0.03 0.03 0.03 0.03 0.03
0.03 0.03 0.01 0.00 0.00 0.00 0.00 0.00 0.00 0.00 0.00 0.00 0.00 0.00 0.00 0.00 0.01 0.01 0.01 0.02 0.02 0.03 0.04 0.04 0.04 0.04 0.03 0.02 0.04 0.11 0.12 0.07 0.06 0.06 0.05 0.05 0.04 0.04 0.03 0.04 0.04 0.04 0.03 0.03 0.03 0.03 0.04 0.03 0.02
0.04 0.04 0.02 0.00 0.00 0.00 0.00 0.00 0.00 0.01 0.00 0.00 0.00 0.00 0.00 0.00 0.01 0.01 0.02 0.02 0.03 0.04 0.05 0.06 0.06 0.06 0.06 0.04 0.04 0.07 0.13 0.11 0.09 0.09 0.08 0.06 0.04 0.04 0.03 0.04 0.06 0.05 0.03 0.03 0.04 0.04 0.04 0.03 0.03
0.04 0.04 0.02 0.00 0.00 0.00 0.00 0.00 0.00 0.00 0.00 0.00 0.00 0.00 0.00 0.00 0.01 0.01 0.02 0.03 0.03 0.04 0.05 0.06 0.07 0.06 0.06 0.05 0.05 0.06 0.09 0.11 0.17 0.16 0.11 0.07 0.04 0.04 0.04 0.05 0.06 0.05 0.03 0.03 0.03 0.03 0.03 0.02 0.02
0.05 0.04 0.01 0.00 0.00 0.00 0.00 0.00 0.00 0.00 0.00 0.00 0.00 0.00 0.00 0.01 0.01 0.01 0.03 0.04 0.05 0.05 0.05 0.06 0.07 0.07 0.06 0.05 0.05 0.07 0.08 0.08 0.13 0.24 0.20 0.13 0.07 0.05 0.05 0.06 0.08 0.06 0.03 0.02 0.03 0.03 0.02 0.02 0.01
0.05 0.04 0.01 0.00 0.00 0.01 0.00 0.00 0.00 0.00 0.00 0.00 0.00 0.00 0.01 0.01 0.01 0.01 0.02 0.04 0.05 0.06 0.06 0.07 0.06 0.07 0.06 0.05 0.04 0.06 0.08 0.08 0.08 0.16 0.23 0.19 0.11 0.05 0.05 0.06 0.06 0.05 0.03 0.02 0.02 0.02 0.02 0.02 0.01
0.05 0.03 0.01 0.00 0.01 0.01 0.00 0.00 0.00 0.00 0.00 0.00 0.00 0.01 0.01 0.02 0.02 0.02 0.02 0.02 0.05 0.06 0.05 0.06 0.07 0.07 0.07 0.06 0.05 0.05 0.07 0.10 0.08 0.11 0.18 0.19 0.14 0.06 0.04 0.06 0.05 0.03 0.02 0.02 0.02 0.02 0.02 0.02 0.01
0.03 0.02 0.00 0.00 0.01 0.02 0.01 0.00 0.00 0.00 0.00 0.00 0.01 0.01 0.02 0.02 0.02 0.02 0.02 0.02 0.03 0.06 0.07 0.07 0.08 0.06 0.06 0.06 0.05 0.05 0.06 0.09 0.11 0.11 0.14 0.17 0.15 0.09 0.05 0.06 0.04 0.03 0.02 0.02 0.02 0.03 0.03 0.02 0.02
0.02 0.01 0.00 0.00 0.01 0.02 0.02 0.01 0.01 0.00 0.00 0.00 0.00 0.01 0.02 0.02 0.01 0.02 0.01 0.01 0.03 0.05 0.06 0.07 0.10 0.09 0.06 0.06 0.06 0.05 0.05 0.05 0.09 0.13 0.15 0.17 0.15 0.11 0.07 0.06 0.05 0.03 0.02 0.01 0.02 0.02 0.04 0.04 0.03
0.02 0.01 0.01 0.00 0.01 0.01 0.02 0.01 0.00 0.00 0.00 0.00 0.00 0.00 0.01 0.02 0.02 0.02 0.02 0.02 0.02 0.03 0.06 0.06 0.08 0.09 0.07 0.07 0.07 0.06 0.06 0.05 0.05 0.09 0.15 0.18 0.16 0.12 0.09 0.07 0.05 0.04 0.02 0.01 0.02 0.02 0.03 0.04 0.03
0.02 0.01 0.01 0.00 0.00 0.01 0.02 0.01 0.00 0.00 0.01 0.00 0.00 0.00 0.01 0.02 0.02 0.02 0.03 0.03 0.02 0.03 0.05 0.06 0.07 0.07 0.07 0.08 0.08 0.07 0.07 0.06 0.05 0.05 0.10 0.16 0.16 0.13 0.10 0.08 0.05 0.04 0.03 0.02 0.02 0.03 0.03 0.05 0.04
0.01 0.01 0.01 0.00 0.00 0.00 0.01 0.01 0.01 0.01 0.02 0.01 0.00 0.01 0.01 0.02 0.03 0.02 0.03 0.05 0.04 0.04 0.04 0.05 0.06 0.07 0.06 0.08 0.09 0.09 0.08 0.07 0.07 0.05 0.07 0.10 0.13 0.12 0.11 0.08 0.05 0.04 0.03 0.02 0.02 0.03 0.04 0.05 0.04
0.01 0.01 0.00 0.00 0.00 0.00 0.01 0.01 0.02 0.02 0.02 0.02 0.01 0.01 0.01 0.01 0.02 0.02 0.03 0.05 0.06 0.06 0.06 0.05 0.05 0.07 0.06 0.07 0.08 0.08 0.08 0.08 0.08 0.07 0.06 0.10 0.11 0.09 0.09 0.08 0.06 0.04 0.03 0.03 0.02 0.03 0.04 0.04 0.03
0.01 0.01 0.01 0.00 0.00 0.00 0.01 0.01 0.02 0.03 0.03 0.03 0.03 0.02 0.02 0.01 0.02 0.02 0.03 0.05 0.07 0.07 0.07 0.06 0.05 0.06 0.07 0.07 0.09 0.07 0.07 0.08 0.10 0.10 0.08 0.09 0.11 0.09 0.08 0.08 0.07 0.05 0.04 0.04 0.03 0.03 0.04 0.04 0.04
0.01 0.01 0.01 0.00 0.00 0.00 0.00 0.01 0.01 0.02 0.03 0.02 0.03 0.03 0.03 0.02 0.02 0.02 0.03 0.04 0.07 0.08 0.08 0.08 0.07 0.06 0.07 0.07 0.09 0.08 0.07 0.09 0.12 0.11 0.09 0.09 0.08 0.08 0.08 0.09 0.08 0.06 0.04 0.04 0.04 0.04 0.04 0.05 0.05
0.02 0.01 0.01 0.00 0.01 0.01 0.01 0.02 0.01 0.02 0.02 0.02 0.04 0.04 0.05 0.04 0.02 0.02 0.03 0.03 0.06 0.08 0.09 0.09 0.08 0.07 0.08 0.09 0.09 0.08 0.06 0.08 0.12 0.12 0.09 0.08 0.07 0.07 0.07 0.09 0.08 0.07 0.04 0.04 0.05 0.05 0.05 0.05 0.05
0.02 0.01 0.01 0.00 0.01 0.02 0.02 0.02 0.01 0.01 0.03 0.03 0.04 0.05 0.06 0.06 0.03 0.02 0.02 0.03 0.05 0.07 0.09 0.10 0.10 0.10 0.10 0.12 0.11 0.09 0.07 0.08 0.13 0.14 0.11 0.10 0.09 0.08 0.08 0.08 0.07 0.07 0.05 0.05 0.05 0.05 0.07 0.07 0.06
0.03 0.02 0.03 0.02 0.02 0.04 0.02 0.02 0.02 0.03 0.05 0.04 0.03 0.04 0.06 0.09 0.08 0.05 0.03 0.03 0.05 0.07 0.08 0.09 0.12 0.15 0.15 0.13 0.15 0.13 0.10 0.10 0.14 0.14 0.12 0.11 0.10 0.09 0.08 0.07 0.07 0.07 0.06 0.05 0.05 0.04 0.05 0.07 0.07
0.03 0.04 0.04 0.05 0.05 0.03 0.01 0.02 0.02 0.03 0.05 0.05 0.04 0.03 0.04 0.08 0.11 0.09 0.06 0.05 0.05 0.07 0.07 0.07 0.09 0.15 0.19 0.18 0.19 0.17 0.14 0.13 0.14 0.11 0.09 0.09 0.08 0.08 0.09 0.07 0.07 0.07 0.06 0.05 0.06 0.06 0.06 0.06 0.06
0.02 0.03 0.03 0.03 0.02 0.01 0.01 0.02 0.02 0.02 0.02 0.03 0.04 0.04 0.04 0.05 0.07 0.08 0.07 0.07 0.06 0.06 0.06 0.06 0.06 0.08 0.13 0.17 0.21 0.22 0.16 0.16 0.15 0.10 0.09 0.09 0.07 0.06 0.07 0.08 0.08 0.08 0.06 0.06 0.06 0.07 0.07 0.06 0.05
0.01 0.02 0.02 0.02 0.01 0.01 0.01 0.01 0.01 0.01 0.01 0.02 0.03 0.04 0.04 0.05 0.06 0.06 0.05 0.05 0.05 0.04 0.04 0.05 0.05 0.06 0.07 0.12 0.18 0.24 0.24 0.20 0.15 0.10 0.09 0.09 0.08 0.06 0.06 0.07 0.08 0.09 0.08 0.06 0.06 0.07 0.07 0.07 0.06
0.01 0.01 0.02 0.03 0.02 0.01 0.00 0.00 0.01 0.01 0.01 0.02 0.02 0.03 0.04 0.04 0.05 0.05 0.05 0.03 0.03 0.03 0.03 0.03 0.04 0.05 0.06 0.08 0.13 0.19 0.29 0.28 0.23 0.18 0.12 0.09 0.08 0.06 0.06 0.07 0.07 0.07 0.08 0.08 0.07 0.07 0.08 0.08 0.07
0.01 0.01 0.02 0.03 0.03 0.02 0.01 0.00 0.02 0.03 0.03 0.02 0.03 0.03 0.03 0.04 0.03 0.04 0.03 0.03 0.02 0.02 0.02 0.02 0.03 0.03 0.05 0.06 0.09 0.12 0.21 0.27 0.26 0.23 0.18 0.13 0.10 0.07 0.05 0.04 0.05 0.05 0.06 0.07 0.06 0.06 0.08 0.09 0.08
0.01 0.01 0.02 0.03 0.02 0.01 0.02 0.01 0.01 0.01 0.01 0.02 0.02 0.02 0.02 0.03 0.02 0.02 0.03 0.03 0.02 0.02 0.02 0.02 0.02 0.03 0.04 0.06 0.08 0.09 0.13 0.21 0.23 0.23 0.18 0.14 0.12 0.10 0.07 0.05 0.04 0.03 0.04 0.06 0.06 0.05 0.06 0.08 0.08
MSLP
1012.87 1013.40 1014.44 1015.97 1017.89 1020.02 1022.17 1024.12 1025.72 1026.86 1027.57 1027.95 1028.13 1028.29 1028.56 1029.02 1029.66 1030.37 1031.01 1031.43 1031.50 1031.17 1030.46 1029.46 1028.31 1027.16 1026.11 1025.24 1024.52 1023.92 1023.36 1022.76 1022.10 1021.37 1020.62 1019.92 1019.34 1018.92 1018.67 1018.59 1018.61 1018.68 1018.76 1018.82 1018.84 1018.85 1018.86 1018.88 1018.91
1013.51 1014.34 1015.65 1017.39 1019.42 1021.58 1023.67 1025.51 1027.00 1028.06 1028.74 1029.14 1029.40 1029.64 1029.99 1030.48 1031.07 1031.66 1032.12 1032.33 1032.20 1031.69 1030.86 1029.80 1028.65 1027.54 1026.56 1025.75 1025.08 1024.50 1023.95 1023.35 1022.68 1021.94 1021.18 1020.46 1019.85 1019.37 1019.05 1018.87 1018.79 1018.77 1018.77 1018.77 1018.78 1018.80 1018.84 1018.91 1019.00
1014.33 1015.43 1016.96 1018.84 1020.90 1022.99 1024.94 1026.62 1027.95 1028.90 1029.53 1029.95 1030.27 1030.61 1031.03 1031.55 1032.10 1032.60 1032.92 1032.96 1032.67 1032.04 1031.14 1030.07 1028.95 1027.90 1026.98 1026.23 1025.60 1025.04 1024.48 1023.88 1023.20 1022.46 1021.70 1020.97 1020.33 1019.80 1019.40 1019.12 1018.92 1018.79 1018.70 1018.64 1018.63 1018.66 1018.75 1018.89 1019.05
1015.31 1016.65 1018.35 1020.28 1022.29 1024.24 1025.99 1027.45 1028.58 1029.39 1029.96 1030.38 1030.76 1031.16 1031.64 1032.17 1032.69 1033.10 1033.30 1033.22 1032.83 1032.15 1031.25 1030.22 1029.18 1028.22 1027.38 1026.68 1026.09 1025.54 1024.98 1024.37 1023.69 1022.95 1022.20 1021.46 1020.79 1020.21 1019.73 1019.35 1019.04 1018.79 1018.61 1018.50 1018.46 1018.52 1018.65 1018.86 1019.09
1016.46 1017.99 1019.78 1021.69 1023.58 1025.32 1026.83 1028.04 1028.96 1029.62 1030.11 1030.52 1030.92 1031.37 1031.87 1032.38 1032.85 1033.17 1033.28 1033.12 1032.69 1032.02 1031.18 1030.26 1029.34 1028.50 1027.76 1027.13 1026.57 1026.03 1025.47 1024.85 1024.17 1023.44 1022.69 1021.96 1021.27 1020.65 1020.10 1019.61 1019.20 1018.85 1018.58 1018.41 1018.36 1018.43 1018.61 1018.88 1019.18
1017.77 1019.43 1021.24 1023.06 1024.77 1026.27 1027.50 1028.46 1029.17 1029.69 1030.11 1030.49 1030.91 1031.36 1031.84 1032.31 1032.70 1032.93 1032.96 1032.75 1032.32 1031.71 1030.98 1030.20 1029.44 1028.75 1028.13 1027.58 1027.06 1026.53 1025.96 1025.33 1024.65 1023.94 1023.21 1022.48 1021.79 1021.14 1020.52 1019.96 1019.44 1019.00 1018.65 1018.43 1018.36 1018.43 1018.65 1018.96 1019.32
1019.23 1020.95 1022.71 1024.38 1025.86 1027.09 1028.06 1028.77 1029.30 1029.71 1030.07 1030.44 1030.84 1031.29 1031.73 1032.13 1032.42 1032.55 1032.50 1032.26 1031.85 1031.32 1030.73 1030.12 1029.53 1028.99 1028.50 1028.02 1027.54 1027.02 1026.45 1025.83 1025.16 1024.47 1023.76 1023.07 1022.38 1021.70 1021.04 1020.39 1019.79 1019.26 1018.84 1018.56 1018.45 1018.52 1018.75 1019.08 1019.46
1020.78 1022.49 1024.13 1025.60 1026.83 1027.79 1028.50 1029.02 1029.40 1029.73 1030.07 1030.44 1030.85 1031.27 1031.66 1031.98 1032.17 1032.20 1032.07 1031.80 1031.43 1030.98 1030.52 1030.07 1029.64 1029.24 1028.84 1028.44 1027.99 1027.48 1026.92 1026.31 1025.67 1025.01 1024.35 1023.68 1023.00 1022.31 1021.60 1020.90 1020.21 1019.60 1019.10 1018.76 1018.61 1018.66 1018.87 1019.20 1019.58
1022.36 1023.98 1025.45 1026.68 1027.65 1028.35 1028.84 1029.19 1029.48 1029.78 1030.12 1030.52 1030.95 1031.36 1031.71 1031.95 1032.05 1031.99 1031.80 1031.50 1031.15 1030.78 1030.42 1030.09 1029.78 1029.48 1029.16 1028.79 1028.36 1027.87 1027.33 1026.74 1026.14 1025.53 1024.91 1024.28 1023.62 1022.93 1022.18 1021.41 1020.65 1019.96 1019.38 1018.97 1018.77 1018.77 1018.96 1019.27 1019.63
1023.84 1025.32 1026.59 1027.57 1028.27 1028.74 1029.05 1029.28 1029.52 1029.82 1030.21 1030.66 1031.12 1031.55 1031.88 1032.07 1032.09 1031.97 1031.72 1031.40 1031.06 1030.74 1030.44 1030.19 1029.95 1029.70 1029.41 1029.05 1028.63 1028.14 1027.61 1027.06 1026.51 1025.96 1025.40 1024.82 1024.19 1023.49 1022.72 1021.89 1021.06 1020.28 1019.62 1019.14 1018.87 1018.83 1018.97 1019.25 1019.58
1025.15 1026.45 1027.49 1028.22 1028.69 1028.96 1029.12 1029.27 1029.50 1029.83 1030.28 1030.79 1031.31 1031.76 1032.09 1032.26 1032.24 1032.08 1031.81 1031.48 1031.14 1030.84 1030.57 1030.33 1030.11 1029.85 1029.55 1029.18 1028.74 1028.25 1027.74 1027.23 1026.73 1026.25 1025.77 1025.24 1024.65 1023.95 1023.16 1022.28 1021.38 1020.52 1019.79 1019.24 1018.90 1018.80 1018.89 1019.13 1019.45
1026.22 1027.33 1028.14 1028.65 1028.92 1029.02 1029.08 1029.19 1029.41 1029.79 1030.29 1030.86 1031.43 1031.92 1032.27 1032.43 1032.41 1032.24 1031.96 1031.63 1031.30 1030.99 1030.72 1030.47 1030.20 1029.91 1029.56 1029.14 1028.67 1028.18 1027.69 1027.22 1026.80 1026.39 1025.98 1025.51 1024.96 1024.28 1023.47 1022.56 1021.60 1020.68 1019.88 1019.25 1018.86 1018.70 1018.75 1018.96 1019.25
1027.03 1027.96 1028.58 1028.91 1029.02 1029.02 1029.01 1029.09 1029.32 1029.72 1030.25 1030.86 1031.46 1031.97 1032.33 1032.51 1032.51 1032.35 1032.08 1031.77 1031.44 1031.12 1030.82 1030.52 1030.20 1029.84 1029.42 1028.95 1028.45 1027.94 1027.47 1027.05 1026.69 1026.36 1026.02 1025.62 1025.11 1024.46 1023.65 1022.72 1021.73 1020.76 1019.90 1019.22 1018.76 1018.56 1018.57 1018.75 1019.03
1027.63 1028.40 1028.88 1029.09 1029.11 1029.05 1029.01 1029.07 1029.29 1029.69 1030.21 1030.81 1031.39 1031.89 1032.25 1032.44 1032.45 1032.32 1032.08 1031.79 1031.46 1031.13 1030.80 1030.45 1030.06 1029.63 1029.14 1028.62 1028.08 1027.58 1027.12 1026.75 1026.44 1026.18 1025.91 1025.57 1025.12 1024.50 1023.72 1022.79 1021.79 1020.79 1019.89 1019.16 1018.66 1018.40 1018.38 1018.54 1018.82
1028.11 1028.78 1029.17 1029.32 1029.31 1029.23 1029.18 1029.23 1029.42 1029.77 1030.24 1030.76 1031.28 1031.73 1032.06 1032.23 1032.25 1032.14 1031.93 1031.66 1031.34 1031.00 1030.64 1030.24 1029.79 1029.30 1028.76 1028.20 1027.64 1027.13 1026.70 1026.36 1026.09 1025.88 1025.67 1025.38 1024.98 1024.41 1023.67 1022.77 1021.78 1020.78 1019.86 1019.09 1018.55 1018.25 1018.19 1018.33 1018.61
1028.60 1029.19 1029.54 1029.69 1029.69 1029.63 1029.58 1029.60 1029.75 1030.01 1030.37 1030.78 1031.19 1031.55 1031.80 1031.94 1031.95 1031.85 1031.65 1031.39 1031.08 1030.72 1030.33 1029.90 1029.41 1028.88 1028.31 1027.73 1027.17 1026.66 1026.24 1025.91 1025.67 1025.49 1025.31 1025.07 1024.72 1024.20 1023.52 1022.67 1021.72 1020.73 1019.80 1019.02 1018.43 1018.08 1017.98 1018.10 1018.37
1029.16 1029.72 1030.07 1030.24 1030.28 1030.25 1030.21 1030.20 1030.27 1030.42 1030.63 1030.89 1031.16 1031.39 1031.56 1031.64 1031.62 1031.51 1031.31 1031.04 1030.72 1030.35 1029.93 1029.47 1028.96 1028.41 1027.83 1027.25 1026.69 1026.19 1025.77 1025.44 1025.20 1025.01 1024.84 1024.63 1024.32 1023.86 1023.24 1022.46 1021.57 1020.62 1019.70 1018.89 1018.27 1017.86 1017.71 1017.78 1018.05
1029.85 1030.39 1030.76 1030.97 1031.06 1031.05 1031.00 1030.94 1030.90 1030.91 1030.97 1031.07 1031.18 1031.29 1031.37 1031.38 1031.33 1031.19 1030.98 1030.69 1030.34 1029.94 1029.49 1029.00 1028.47 1027.92 1027.34 1026.77 1026.22 1025.72 1025.28 1024.93 1024.65 1024.44 1024.25 1024.04 1023.76 1023.37 1022.83 1022.13 1021.31 1020.42 1019.52 1018.69 1018.01 1017.55 1017.32 1017.34 1017.58
1030.65 1031.17 1031.56 1031.80 1031.91 1031.91 1031.81 1031.67 1031.52 1031.38 1031.28 1031.23 1031.21 1031.22 1031.22 1031.20 1031.11 1030.95 1030.71 1030.38 1029.99 1029.53 1029.04 1028.51 1027.96 1027.40 1026.84 1026.28 1025.73 1025.22 1024.75 1024.35 1024.02 1023.75 1023.52 1023.30 1023.05 1022.71 1022.25 1021.64 1020.91 1020.08 1019.21 1018.37 1017.64 1017.10 1016.79 1016.74 1016.93
1031.51 1032.01 1032.39 1032.64 1032.73 1032.68 1032.52 1032.26 1031.97 1031.68 1031.44 1031.26 1031.16 1031.11 1031.09 1031.05 1030.96 1030.79 1030.52 1030.14 1029.68 1029.15 1028.59 1028.00 1027.42 1026.85 1026.29 1025.73 1025.18 1024.65 1024.14 1023.68 1023.27 1022.93 1022.64 1022.40 1022.15 1021.87 1021.49 1020.99 1020.35 1019.60 1018.76 1017.91 1017.14 1016.51 1016.11 1015.98 1016.11
1032.36 1032.83 1033.18 1033.39 1033.42 1033.28 1032.99 1032.59 1032.14 1031.71 1031.35 1031.09 1030.95 1030.90 1030.90 1030.91 1030.85 1030.68 1030.38 1029.95 1029.41 1028.79 1028.13 1027.47 1026.84 1026.23 1025.66 1025.09 1024.53 1023.97 1023.42 1022.88 1022.39 1021.96 1021.62 1021.34 1021.10 1020.86 1020.57 1020.18 1019.64 1018.97 1018.18 1017.33 1016.51 1015.81 1015.32 1015.09 1015.16
1033.14 1033.57 1033.88 1034.01 1033.94 1033.66 1033.20 1032.62 1032.00 1031.43 1030.97 1030.67 1030.54 1030.54 1030.62 1030.70 1030.71 1030.57 1030.25 1029.76 1029.13 1028.40 1027.63 1026.87 1026.16 1025.51 1024.91 1024.33 1023.75 1023.16 1022.55 1021.94 1021.37 1020.87 1020.46 1020.15 1019.92 1019.74 1019.53 1019.24 1018.81 1018.22 1017.48 1016.65 1015.80 1015.04 1014.46 1014.14 1014.13
1033.84 1034.25 1034.50 1034.53 1034.32 1033.87 1033.21 1032.43 1031.63 1030.92 1030.37 1030.06 1029.96 1030.05 1030.24 1030.42 1030.51 1030.40 1030.08 1029.53 1028.80 1027.94 1027.05 1026.18 1025.38 1024.67 1024.02 1023.42 1022.82 1022.20 1021.55 1020.88 1020.24 1019.68 1019.22 1018.88 1018.67 1018.53 1018.40 1018.21 1017.88 1017.39 1016.71 1015.91 1015.04 1014.23 1013.58 1013.19 1013.11
1034.48 1034.88 1035.08 1035.02 1034.66 1034.02 1033.15 1032.16 1031.16 1030.31 1029.69 1029.36 1029.31 1029.48 1029.78 1030.07 1030.23 1030.16 1029.82 1029.20 1028.37 1027.39 1026.37 1025.38 1024.48 1023.70 1023.01 1022.38 1021.76 1021.11 1020.43 1019.72 1019.03 1018.42 1017.92 1017.57 1017.37 1017.28 1017.23 1017.12 1016.90 1016.49 1015.88 1015.11 1014.26 1013.42 1012.72 1012.27 1012.14
1035.09 1035.51 1035.69 1035.55 1035.05 1034.22 1033.15 1031.95 1030.78 1029.79 1029.09 1028.73 1028.71 1028.95 1029.32 1029.68 1029.89 1029.84 1029.46 1028.77 1027.83 1026.73 1025.58 1024.47 1023.48 1022.62 1021.88 1021.22 1020.58 1019.92 1019.21 1018.48 1017.76 1017.12 1016.60 1016.24 1016.06 1016.01 1016.02 1016.00 1015.85 1015.53 1014.99 1014.27 1013.44 1012.60 1011.87 1011.39 1011.21
1035.69 1036.17 1036.35 1036.14 1035.53 1034.56 1033.31 1031.93 1030.60 1029.49 1028.71 1028.31 1028.29 1028.55 1028.95 1029.34 1029.55 1029.46 1029.02 1028.24 1027.19 1025.97 1024.70 1023.49 1022.40 1021.48 1020.69 1019.99 1019.33 1018.64 1017.92 1017.17 1016.43 1015.77 1015.24 1014.89 1014.73 1014.71 1014.77 1014.82 1014.75 1014.50 1014.03 1013.36 1012.56 1011.74 1011.02 1010.52 1010.33
1036.28 1036.82 1037.01 1036.77 1036.09 1035.00 1033.63 1032.13 1030.69 1029.48 1028.63 1028.18 1028.12 1028.36 1028.73 1029.08 1029.23 1029.07 1028.54 1027.66 1026.49 1025.16 1023.78 1022.47 1021.30 1020.30 1019.46 1018.71 1018.01 1017.30 1016.55 1015.78 1015.03 1014.36 1013.83 1013.49 1013.34 1013.36 1013.47 1013.57 1013.57 1013.38 1012.98 1012.37 1011.62 1010.83 1010.13 1009.64 1009.45
1036.79 1037.37 1037.57 1037.32 1036.60 1035.47 1034.04 1032.48 1030.98 1029.72 1028.82 1028.33 1028.22 1028.38 1028.68 1028.93 1028.98 1028.70 1028.05 1027.05 1025.78 1024.34 1022.86 1021.46 1020.21 1019.14 1018.22 1017.41 1016.65 1015.88 1015.09 1014.29 1013.51 1012.83 1012.31 1011.98 1011.86 1011.92 1012.08 1012.24 1012.29 1012.17 1011.84 1011.29 1010.60 1009.85 1009.19 1008.72 1008.55
1037.12 1037.69 1037.88 1037.62 1036.89 1035.75 1034.33 1032.80 1031.33 1030.09 1029.19 1028.68 1028.51 1028.59 1028.77 1028.88 1028.79 1028.36 1027.58 1026.46 1025.08 1023.55 1021.99 1020.51 1019.18 1018.02 1017.01 1016.10 1015.24 1014.38 1013.52 1012.65 1011.84 1011.15 1010.63 1010.33 1010.26 1010.37 1010.58 1010.81 1010.94 1010.89 1010.62 1010.14 1009.51 1008.82 1008.20 1007.77 1007.62
1037.16 1037.66 1037.79 1037.49 1036.76 1035.67 1034.34 1032.91 1031.54 1030.40 1029.57 1029.07 1028.87 1028.87 1028.92 1028.89 1028.63 1028.05 1027.13 1025.90 1024.43 1022.82 1021.20 1019.65 1018.23 1016.97 1015.83 1014.79 1013.79 1012.80 1011.81 1010.86 1010.00 1009.29 1008.78 1008.53 1008.51 1008.70 1009.00 1009.31 1009.52 1009.55 1009.36 1008.96 1008.40 1007.77 1007.20 1006.81 1006.69
Thickness
5690 5691 5690 5682 5663 5642 5643 5648 5652 5653 5654 5656 5658 5658 5658 5657 5657 5657 5658 5663 5666 5668 5671 5674 5677 5680 5683 5684 5686 5688 5690 5691 5692 5693 5695 5696 5697 5697 5698 5699 5699 5699 5699 5699 5699 5699 5698 5698 5698
5684 5685 5679 5664 5646 5635 5638 5644 5645 5647 5649 5649 5649 5650 5650 5649 5649 5649 5651 5656 5659 5663 5666 5669 5672 5675 5677 5679 5681 5682 5684 5686 5687 5688 5690 5691 5692 5693 5694 5695 5695 5695 5695 5695 5695 5694 5694 5694 5694
5679 5676 5662 5645 5634 5633 5640 5640 5639 5641 5641 5641 5638 5639 5640 5640 5641 5641 5644 5648 5652 5656 5659 5663 5666 5669 5672 5674 5676 5677 5679 5680 5682 5683 5684 5686 5687 5688 5689 5690 5690 5690 5691 5691 5690 5690 5689 5689 5689
5669 5660 5647 5635 5631 5632 5633 5633 5632 5633 5634 5632 5630 5628 5630 5632 5632 5634 5638 5641 5644 5648 5652 5656 5659 5663 5665 5668 5670 5671 5673 5675 5676 5677 5679 5680 5681 5682 5684 5684 5685 5685 5686 5686 5686 5685 5685 5685 5685
5656 5645 5632 5620 5623 5626 5624 5625 5626 5625 5623 5621 5621 5619 5621 5623 5625 5628 5630 5632 5635 5639 5643 5647 5652 5655 5658 5661 5663 5665 5667 5669 5670 5671 5672 5674 5675 5676 5677 5678 5679 5680 5680 5681 5681 5681 5680 5680 5680
5637 5630 5618 5613 5617 5618 5617 5618 5617 5615 5612 5611 5610 5610 5612 5615 5617 5619 5621 5624 5626 5630 5634 5638 5643 5647 5650 5653 5656 5658 5660 5662 5663 5665 5666 5667 5669 5670 5671 5672 5673 5674 5674 5675 5675 5675 5675 5674 5674
5624 5616 5610 5609 5607 5608 5611 5609 5607 5604 5602 5601 5602 5600 5604 5606 5607 5609 5612 5614 5617 5621 5625 5629 5633 5637 5640 5644 5647 5650 5652 5654 5656 5657 5659 5660 5662 5663 5664 5665 5666 5667 5668 5668 5669 5669 5669 5669 5668
5616 5607 5601 5597 5599 5601 5602 5601 5599 5596 5593 5594 5594 5591 5593 5596 5598 5600 5602 5605 5608 5611 5615 5619 5622 5627 5631 5635 5638 5641 5644 5646 5648 5649 5651 5653 5654 5656 5657 5658 5659 5660 5661 5662 5662 5663 5663 5662 5662
5611 5596 5591 5592 5593 5593 5593 5590 5589 5587 5584 5584 5584 5584 5585 5587 5588 5589 5591 5594 5598 5601 5605 5609 5613 5616 5621 5625 5629 5632 5635 5638 5640 5641 5643 5645 5646 5648 5649 5650 5651 5652 5653 5654 5655 5655 5655 5655 5655
5595 5584 5588 5588 5588 5585 5583 5581 5578 5576 5574 5572 5573 5573 5574 5575 5576 5578 5579 5582 5586 5590 5594 5599 5603 5606 5611 5615 5619 5622 5625 5628 5630 5632 5634 5636 5638 5640 5640 5642 5643 5644 5645 5646 5647 5647 5647 5648 5648
5581 5577 5579 5579 5579 5577 5573 5571 5569 5566 5564 5563 5563 5563 5563 5563 5564 5566 5568 5571 5575 5579 5584 5588 5593 5597 5601 5605 5609 5612 5615 5618 5621 5623 5625 5626 5629 5631 5631 5633 5634 5636 5637 5637 5638 5638 5639 5640 5640
5568 5567 5569 5569 5569 5566 5564 5561 5556 5555 5555 5556 5554 5553 5553 5552 5552 5555 5557 5560 5564 5568 5573 5577 5581 5586 5589 5594 5598 5602 5605 5608 5611 5613 5615 5617 5619 5621 5622 5623 5624 5626 5627 5628 5628 5629 5630 5631 5632
5559 5558 5558 5556 5555 5554 5552 5549 5547 5545 5545 5545 5544 5543 5542 5541 5541 5543 5546 5549 5553 5558 5562 5566 5571 5575 5579 5583 5587 5591 5594 5597 5600 5603 5605 5607 5609 5611 5613 5614 5615 5616 5618 5619 5619 5620 5621 5622 5623
5549 5547 5546 5546 5546 5545 5543 5540 5538 5536 5536 5535 5533 5531 5531 5531 5531 5532 5535 5537 5541 5546 5549 5554 5559 5564 5568 5571 5576 5580 5584 5587 5590 5592 5594 5597 5599 5601 5603 5604 5606 5606 5608 5610 5611 5612 5613 5614 5615
5542 5539 5539 5538 5537 5536 5534 5532 5529 5529 5526 5524 5522 5521 5520 5520 5521 5522 5524 5526 5530 5534 5538 5542 5548 5552 5556 5560 5565 5569 5573 5577 5579 5581 5584 5587 5589 5591 5593 5595 5595 5597 5599 5601 5602 5603 5604 5606 5606
5533 5527 5524 5529 5526 5526 5523 5520 5522 5518 5515 5512 5511 5510 5509 5509 5510 5511 5512 5515 5519 5522 5526 5531 5536 5541 5545 5549 5553 5558 5562 5565 5568 5570 5573 5576 5579 5581 5583 5585 5586 5587 5589 5591 5593 5594 5595 5596 5597
5515 5509 5510 5515 5516 5513 5509 5507 5511 5507 5504 5501 5500 5498 5498 5498 5500 5500 5501 5504 5508 5512 5515 5519 5524 5529 5534 5538 5542 5546 5550 5554 5557 5560 5562 5565 5569 5571 5573 5576 5577 5578 5580 5582 5583 5584 5586 5587 5588
5507 5500 5500 5500 5503 5499 5494 5495 5499 5496 5492 5489 5487 5486 5486 5486 5488 5489 5490 5493 5497 5501 5504 5507 5512 5516 5521 5526 5531 5534 5539 5543 5546 5549 5552 5555 5559 5562 5564 5566 5567 5570 5571 5572 5573 5575 5576 5578 5579
5500 5493 5489 5492 5493 5488 5485 5487 5491 5487 5483 5480 5476 5474 5474 5474 5476 5478 5480 5482 5485 5488 5492 5495 5499 5504 5509 5514 5519 5524 5528 5532 5536 5539 5541 5544 5548 5551 5554 5556 5557 5560 5562 5563 5564 5566 5567 5568 5569
5493 5488 5484 5486 5486 5482 5475 5479 5483 5481 5478 5474 5470 5466 5464 5465 5466 5468 5470 5471 5473 5476 5480 5484 5487 5493 5498 5504 5509 5514 5518 5522 5525 5528 5532 5534 5538 5541 5544 5546 5547 5551 5552 5553 5554 5556 5557 5558 5560
5489 5482 5478 5475 5475 5473 5465 5475 5478 5477 5470 5467 5463 5458 5455 5455 5455 5457 5459 5461 5463 5466 5469 5475 5478 5483 5488 5493 5499 5505 5507 5511 5514 5518 5522 5525 5527 5531 5534 5536 5538 5541 5543 5544 5545 5547 5548 5548 5549
5484 5481 5476 5469 5459 5453 5453 5453 5470 5464 5461 5460 5454 5449 5446 5445 5445 5447 5449 5451 5453 5456 5459 5464 5469 5474 5479 5484 5489 5494 5497 5500 5504 5507 5511 5514 5517 5520 5523 5526 5528 5531 5533 5535 5536 5537 5539 5540 5540
5472 5471 5465 5460 5450 5441 5438 5436 5458 5453 5455 5454 5447 5443 5439 5437 5436 5438 5439 5441 5444 5446 5449 5453 5458 5464 5469 5473 5479 5483 5486 5489 5493 5497 5501 5504 5507 5510 5513 5516 5519 5521 5524 5526 5526 5527 5529 5530 5531
5464 5460 5455 5443 5437 5441 5435 5429 5444 5442 5444 5444 5442 5437 5433 5430 5430 5431 5431 5432 5435 5437 5440 5444 5449 5453 5458 5463 5468 5472 5476 5479 5482 5486 5490 5492 5496 5499 5502 5505 5508 5511 5514 5516 5517 5518 5519 5520 5521
5454 5449 5443 5438 5426 5433 5426 5424 5435 5436 5432 5432 5431 5428 5424 5422 5422 5423 5424 5425 5426 5429 5431 5434 5439 5443 5447 5452 5457 5462 5466 5470 5473 5476 5480 5483 5486 5489 5491 5494 5498 5501 5504 5506 5507 5509 5509 5511 5512
5439 5438 5434 5429 5422 5421 5417 5419 5433 5429 5425 5422 5420 5419 5418 5414 5414 5415 5415 5416 5419 5421 5424 5427 5431 5434 5438 5443 5447 5452 5456 5460 5463 5466 5469 5473 5476 5479 5481 5484 5488 5491 5494 5496 5497 5499 5500 5501 5502
5433 5420 5416 5408 5395 5394 5408 5410 5423 5424 5420 5417 5414 5411 5408 5406 5406 5406 5407 5409 5410 5412 5415 5418 5421 5425 5429 5433 5437 5441 5445 5449 5452 5455 5459 5462 5465 5469 5471 5474 5477 5480 5483 5486 5487 5488 5490 5491 5492
5422 5411 5400 5400 5400 5400 5404 5404 5417 5420 5416 5410 5405 5401 5399 5398 5398 5398 5399 5400 5402 5404 5406 5409 5413 5416 5420 5424 5426 5430 5434 5438 5441 5445 5448 5451 5455 5458 5461 5463 5466 5469 5473 5475 5477 5478 5480 5481 5482
5410 5405 5397 5389 5391 5389 5391 5413 5415 5413 5410 5402 5398 5394 5391 5391 5391 5391 5392 5392 5393 5395 5397 5400 5403 5407 5410 5413 5416 5420 5423 5426 5430 5434 5438 5441 5443 5447 5450 5453 5456 5459 5463 5465 5467 5469 5470 5471 5472
5401 5394 5386 5393 5385 5369 5371 5400 5413 5403 5397 5393 5390 5390 5387 5385 5383 5383 5384 5384 5385 5387 5389 5391 5394 5397 5400 5403 5406 5409 5412 5416 5419 5423 5427 5430 5433 5436 5439 5442 5445 5449 5452 5455 5457 5458 5460 5461 5463